Regional Weather Roundup
Issued by NWS

Home | Current Version | Previous Version | Graphics & Text | Print | Product List | Glossary Off
Versions: 1 2 3 4 5 6 7 8 9 10 11 12 13 14 15 16 17 18 19 20 21 22 23 24 25 26 27 28 29 30 31 32 33 34 35 36 37 38 39 40 41 42 43 44 45 46 47 48 49 50

000
ASUS43 KTOP 110059
RWRKS

WEATHER ROUNDUP FOR KANSAS
NATIONAL WEATHER SERVICE GOODLAND KS
700 PM CST WED FEB 10 2016

NOTE:  "FAIR" INDICATES FEW OR NO CLOUDS BELOW 12,000 FEET WITH NO
SIGNIFICANT WEATHER AND/OR OBSTRUCTIONS TO VISIBILITY.

KSZ001>006-013>018-027>032-041>047-110200-
NORTHWEST KANSAS

CITY           SKY/WX    TMP DP  RH WIND       PRES   REMARKS
GOODLAND       CLOUDY    41  29  62 NW9       30.06R
HAYS           CLEAR     43  27  52 W10       29.98R
HILL CITY      CLEAR     45  31  58 NW12      29.98R
RUSSELL        CLEAR     44  30  57 W9G18     29.95R
$$

KSZ061>065-074>080-084>089-110200-
SOUTHWEST KANSAS

CITY           SKY/WX    TMP DP  RH WIND       PRES   REMARKS
DODGE CITY     CLEAR     49  21  33 N6        30.00R
ELKHART          N/A     63  10  12 W2          N/A
GARDEN CITY    CLEAR     43  22  43 N12       30.01R
GREAT BEND     CLEAR     46  27  46 W8        29.97R
LIBERAL        CLEAR     57  10  15 CALM      30.02S
$$

KSZ066>073-081>083-090>101-110200-
SOUTHEAST KANSAS

CITY           SKY/WX    TMP DP  RH WIND       PRES   REMARKS
CHANUTE        CLEAR     44  28  53 SE3       29.92R
COFFEYVILLE    CLEAR     49  27  42 S3        29.92S
HUTCHINSON     CLEAR     51  29  42 NW8       29.95R
MEDICINE LODGE   N/A     56  25  30 N9        29.95R
NEWTON         CLEAR     54  28  37 NW10      29.95R
PARSONS        CLEAR     51  28  41 S3        29.92R
WICHITA INTL   PTCLDY    57  29  34 NW10      29.92R
WICHITA JABRA  CLEAR     56  29  35 W8        29.93R
WINFIELD       CLEAR     47  33  58 S3        29.92R
$$

KSZ007>012-019>026-033>040-048>060-102>105-110200-
NORTHEAST KANSAS

CITY           SKY/WX    TMP DP  RH WIND       PRES   REMARKS
CONCORDIA      CLEAR     45  31  58 W7        29.95R
EMPORIA        CLEAR     52  30  43 W5        29.91R
LAWRENCE       CLEAR     43  23  45 E9        29.95R
MANHATTAN      CLEAR     47  30  51 CALM      29.94R
OLATHE IND     CLEAR     43  22  43 E9        29.95R
OLATHE EXE     CLEAR     42  21  43 E7        29.96R
SALINA         CLEAR     48  30  49 NW8       29.95R
TOPEKA BILLARD CLEAR     47  26  44 E9        29.93R
TOPEKA FORBES  CLEAR     45  27  49 NE6       29.92R
$$



USA.gov is the U.S. government's official web portal to all federal, state and local government web resources and services.